RH
8 7 7 6 6 6 5 5 4 5 6 8 11 13 16 18 20 23 24 25 27 26 26 25 25 30 35 32 31 32 31 35 56 81 91 91 90 86 76 71 76 86 91 86 81 84 84 76 65 58 54 50 46 42 37 33 30 27 24 21 18 16 15 14 12 11 10 8 7 7 7 7 6 6
11 9 9 8 7 7 6 6 5 5 5 6 7 10 13 16 18 20 22 23 24 26 26 26 25 27 32 35 33 31 34 34 39 64 91 97 98 100 92 80 73 73 80 88 91 93 94 92 83 72 66 62 57 52 48 44 41 38 36 32 28 25 24 22 18 15 13 12 11 10 10 9 8 7
16 14 13 11 10 10 9 8 8 7 7 7 7 9 11 16 18 19 21 23 24 25 26 25 26 27 29 34 36 32 33 36 36 50 79 94 96 99 99 95 89 77 68 73 87 97 102 101 97 89 80 75 71 65 60 56 53 51 49 45 41 38 35 33 29 25 21 19 18 17 16 14 11 10
23 19 19 18 16 15 14 12 11 10 10 10 11 12 15 20 24 24 24 25 26 27 27 27 26 28 29 31 35 35 32 34 36 41 60 82 90 90 91 91 88 80 68 62 66 78 91 99 102 99 91 85 83 80 74 69 66 65 64 61 57 53 51 47 42 38 34 30 29 28 26 23 19 17
54 42 34 28 24 23 22 21 19 18 18 18 20 21 24 28 34 36 32 29 29 30 30 30 28 28 30 31 32 35 33 32 34 37 51 78 90 85 84 86 78 69 66 67 65 64 72 84 94 101 100 95 92 91 89 84 79 77 78 78 73 67 66 62 55 50 47 43 41 39 37 35 31 28
92 80 65 50 42 39 35 31 29 29 29 31 33 33 35 39 45 49 46 39 35 34 34 34 32 29 31 33 33 33 34 33 33 35 45 73 94 88 84 90 87 76 74 82 85 79 74 76 82 92 99 100 100 99 99 97 91 87 87 89 87 82 78 75 68 61 56 53 50 49 48 45 41 39
103 101 93 85 79 70 57 48 45 42 39 39 42 44 48 50 53 58 58 50 43 40 39 39 37 34 32 35 36 36 35 33 34 36 40 64 94 97 90 98 102 94 92 97 99 95 89 83 80 86 93 98 100 101 101 102 100 97 94 94 95 93 89 86 81 75 68 61 58 57 56 54 50 45
100 101 100 100 101 95 85 74 66 59 52 47 48 50 53 54 55 60 62 58 51 47 45 45 44 41 36 36 38 39 38 35 35 37 37 54 89 102 96 100 107 103 99 101 102 99 97 93 86 87 93 97 100 101 101 101 101 101 101 98 99 100 98 95 91 88 83 77 70 66 64 63 60 54
99 99 99 101 101 101 100 94 86 79 66 55 51 50 49 51 52 56 61 61 57 54 50 48 48 47 41 37 38 41 41 38 37 39 37 45 74 98 100 99 104 102 93 96 102 99 98 100 95 90 90 91 96 100 101 101 100 101 102 101 101 101 101 99 96 95 94 90 83 76 70 67 65 63
100 100 100 101 99 97 100 101 100 98 87 72 66 59 52 54 54 54 58 61 60 58 55 51 50 51 47 40 37 39 42 42 39 40 40 43 60 85 99 102 103 102 95 94 100 101 101 103 101 97 92 88 88 93 98 100 101 102 102 100 101 103 103 102 99 97 97 95 90 81 73 67 64 63
101 101 101 100 98 97 99 101 101 102 100 94 87 74 60 56 58 56 57 62 63 61 59 56 53 53 52 48 42 38 40 42 43 42 42 46 58 75 93 103 103 101 100 100 100 101 104 103 101 100 99 97 94 95 98 98 97 100 98 91 90 95 100 100 97 94 92 92 92 89 83 75 70 70
99 99 100 100 100 99 101 102 100 98 100 101 101 91 71 57 54 54 53 57 61 63 62 61 58 56 54 53 49 44 41 40 42 43 43 47 63 80 92 100 104 100 100 101 100 100 101 102 102 100 100 101 101 100 100 98 97 101 99 91 87 89 94 97 97 95 93 92 95 98 95 91 87 84
98 98 98 98 100 100 101 103 101 97 95 93 93 91 76 60 54 55 54 52 55 60 63 62 61 60 57 54 53 50 46 42 41 43 44 45 61 87 100 100 102 104 102 101 101 101 100 101 103 102 101 101 101 101 99 96 97 102 103 100 97 95 96 100 100 100 100 100 101 100 97 98 99 93
99 99 99 98 99 100 100 102 101 100 98 95 94 91 81 67 59 58 57 53 51 55 60 62 61 60 58 55 55 53 50 47 44 45 47 46 52 77 100 104 101 101 102 103 104 102 100 100 101 102 102 101 100 101 99 94 95 99 100 101 101 99 99 100 100 100 101 101 102 101 98 100 104 99
101 100 100 100 100 100 100 100 100 100 100 100 101 101 94 80 67 61 57 54 51 49 53 58 60 59 58 55 54 55 54 53 50 46 48 50 49 58 80 97 102 101 100 101 102 101 99 101 102 102 102 101 100 101 102 99 98 99 100 101 102 101 101 101 100 100 100 100 100 100 100 101 102 102
101 100 99 99 100 100 100 100 100 100 100 100 101 104 103 91 74 62 55 51 49 46 46 51 54 55 57 55 54 54 54 53 53 50 48 51 53 53 59 74 90 99 101 100 101 101 99 100 101 100 101 102 100 101 101 101 101 100 100 101 102 102 101 100 100 100 100 101 101 100 101 102 101 102
102 101 101 101 101 101 101 101 100 100 100 100 100 102 104 97 80 66 57 50 45 43 42 45 48 51 53 54 53 53 53 53 53 52 50 49 52 56 57 64 79 94 101 102 101 101 101 101 101 100 101 101 100 98 98 99 100 101 100 100 100 101 101 100 100 101 100 101 101 101 101 101 101 102
96 96 97 98 98 99 99 100 100 100 101 101 101 101 102 100 91 79 68 58 51 46 42 41 43 47 50 52 53 52 52 52 50 50 50 48 47 51 55 61 73 88 100 104 102 100 101 100 100 100 100 101 102 99 96 96 97 100 102 102 100 100 100 100 100 100 100 100 100 101 102 101 100 103
98 98 98 97 97 97 97 98 98 99 98 98 99 100 100 102 103 98 87 76 65 56 50 46 44 44 45 47 52 55 54 52 49 47 47 47 46 46 48 51 57 65 77 87 92 94 95 95 95 95 95 98 101 101 101 98 93 91 94 99 101 100 100 101 100 100 100 101 100 100 101 101 100 102
86 85 86 87 88 89 91 93 95 97 98 99 100 101 100 99 100 102 101 95 87 76 67 60 54 50 46 43 44 49 51 51 50 48 45 44 43 42 43 45 47 50 53 59 66 74 81 86 92 94 95 97 98 99 100 100 95 88 87 91 97 98 98 99 100 100 100 101 101 101 100 100 100 101
62 63 64 66 68 70 72 74 76 79 82 86 92 97 101 102 101 101 102 101 99 95 88 82 74 66 60 54 48 47 46 45 46 47 45 44 42 41 40 40 41 44 46 47 49 52 58 67 78 87 93 98 101 101 99 97 94 89 83 83 86 90 93 96 98 100 101 101 101 101 100 100 100 100
61 65 69 72 75 77 77 76 75 75 73 73 75 77 80 87 92 97 100 102 102 102 100 97 93 86 79 72 66 60 55 49 44 42 41 42 41 41 41 40 40 41 42 44 45 45 45 47 53 61 71 80 88 95 97 97 96 90 82 74 70 71 76 81 86 90 95 98 100 101 100 100 100 100
69 76 81 88 92 94 93 90 89 89 86 86 88 85 79 77 78 81 85 90 94 99 102 102 101 98 94 90 85 79 73 64 55 47 43 42 41 40 39 39 38 38 38 39 41 42 43 42 42 43 46 50 56 63 70 76 81 85 85 80 72 66 65 67 68 71 74 80 87 92 95 97 99 100
79 86 92 97 102 105 104 101 98 94 89 89 94 98 97 96 94 89 85 81 79 81 86 94 99 102 102 101 99 94 87 78 68 61 54 48 45 44 42 39 37 37 37 37 37 37 37 38 39 39 39 39 40 41 44 47 52 58 64 68 67 64 59 57 54 53 53 55 59 65 71 77 83 88
85 92 95 98 101 103 104 104 101 94 84 76 74 78 89 101 105 103 100 95 87 78 71 70 75 83 91 97 100 101 99 95 89 83 75 67 59 53 47 43 39 36 34 34 34 34 34 35 35 35 35 35 36 36 36 36 38 39 41 43 45 45 44 43 41 40 40 41 41 43 45 48 53 60
88 93 97 100 101 101 100 97 88 76 64 56 51 51 63 80 91 97 102 103 101 96 87 77 69 66 66 70 76 83 88 91 94 94 93 92 89 85 81 76 70 62 56 50 40 32 30 29 29 30 31 31 32 32 32 32 32 33 34 34 34 34 34 34 34 34 35 35 36 37 37 38 40 43
88 94 100 103 101 98 94 84 67 53 48 48 48 46 47 54 63 74 85 95 101 102 99 94 90 85 77 67 62 61 62 64 67 68 71 73 76 80 85 88 89 89 89 85 74 61 52 44 36 31 27 25 26 26 27 29 29 29 29 29 30 31 32 32 32 33 33 33 34 35 36 38 42 47
90 97 101 100 96 94 88 70 51 43 46 52 61 66 65 63 61 58 60 71 85 95 100 101 100 100 98 92 84 78 74 70 65 59 55 52 50 51 53 54 56 58 63 69 73 75 76 75 71 65 55 43 33 27 24 23 24 25 26 26 26 26 28 30 31 33 35 36 36 36 36 38 44 51
92 97 98 96 97 96 84 61 44 43 50 57 68 78 83 84 81 72 64 62 66 74 85 95 100 102 102 101 102 102 99 92 84 76 69 65 60 55 49 45 41 39 36 36 39 43 48 55 64 74 79 76 67 58 49 40 33 28 25 25 26 26 25 26 27 30 36 43 47 49 48 48 51 55
92 96 97 97 99 95 78 56 43 45 54 67 76 81 86 89 86 81 80 80 75 71 72 79 89 99 103 102 103 105 105 101 96 90 86 81 74 65 56 49 44 40 36 33 30 28 27 27 29 38 52 65 74 81 83 78 69 58 47 37 31 28 27 27 27 28 33 44 58 69 72 72 70 68
93 94 95 95 95 90 77 58 45 43 52 68 82 87 89 93 94 92 95 97 95 90 86 85 86 91 97 101 102 103 104 104 101 96 89 82 73 64 55 48 42 38 34 32 30 28 26 25 23 22 27 37 51 68 85 92 92 89 83 72 59 48 40 36 35 35 37 42 52 66 77 86 89 88
99 96 95 93 89 85 78 65 51 43 43 53 68 78 85 95 102 104 105 104 102 100 99 97 93 88 87 89 90 92 94 95 94 93 87 77 67 59 51 44 40 39 38 38 37 36 35 33 32 30 29 31 38 51 68 80 87 93 98 97 90 80 70 60 53 49 48 48 49 55 66 77 86 91
101 96 94 92 85 81 82 76 62 49 42 42 47 56 67 80 90 94 96 97 99 101 101 98 95 90 84 79 76 76 77 79 81 84 82 73 63 54 47 43 42 44 45 46 46 45 43 42 40 38 36 36 36 40 48 59 69 82 94 101 101 98 95 89 81 72 64 59 57 58 64 72 79 86
98 96 94 93 86 82 84 84 75 63 52 45 43 44 49 55 62 67 72 76 79 83 85 85 84 83 81 77 73 71 71 75 79 80 76 66 56 48 45 44 46 48 49 48 48 47 46 44 43 41 39 38 37 37 37 38 43 51 63 74 82 88 94 100 100 96 89 81 73 67 65 67 72 79
94 93 92 89 85 83 85 88 86 78 68 58 51 47 47 48 49 51 54 57 59 61 64 65 67 70 72 72 73 76 79 81 80 75 65 55 48 46 45 45 47 49 50 51 52 54 54 54 54 53 50 48 46 44 41 39 39 39 40 42 46 52 61 71 80 87 92 95 94 90 84 79 76 75
91 90 89 86 85 85 87 90 91 89 85 78 68 60 55 53 53 54 55 57 60 61 63 65 67 70 74 77 79 80 78 74 66 58 51 48 47 48 49 51 55 58 61 64 67 69 70 71 71 70 68 65 60 54 53 53 52 51 49 46 43 40 39 40 44 51 58 68 78 87 93 96 98 97
87 85 86 85 84 85 87 91 93 93 92 90 85 80 73 67 62 59 58 58 61 62 64 67 68 69 70 70 68 65 61 56 54 52 54 56 60 63 67 71 75 77 79 80 81 80 78 77 77 75 73 69 64 61 63 64 62 60 61 60 57 52 45 37 34 35 38 43 49 55 63 72 82 92
87 83 82 82 83 83 83 83 85 87 89 91 92 94 93 90 86 81 75 71 69 67 66 65 65 64 64 64 63 63 64 66 69 72 76 79 81 84 86 88 89 89 87 85 81 76 72 72 72 72 72 73 72 71 72 71 67 65 65 63 62 60 54 46 41 41 42 44 45 46 47 49 53 59
90 85 81 79 81 83 82 79 78 79 82 86 91 95 98 101 102 102 100 97 94 90 88 86 85 84 84 84 85 85 86 88 89 90 91 92 91 92 92 92 92 91 90 89 87 83 81 81 82 82 81 80 79 79 78 75 72 72 72 71 73 76 74 69 64 60 56 54 53 51 50 49 48 47
93 89 85 81 79 80 80 78 77 76 77 79 83 87 92 96 100 103 105 106 106 105 104 102 101 100 98 97 97 96 95 95 95 94 94 93 92 92 92 91 90 89 88 89 89 89 90 91 89 86 84 81 80 82 82 81 82 85 88 87 86 87 89 89 87 83 79 75 71 67 63 61 59 58
89 86 83 79 76 75 73 72 71 71 71 71 73 77 81 84 88 91 94 96 98 100 100 101 100 99 98 97 96 94 92 91 90 89 88 88 88 88 88 88 88 89 90 91 92 93 95 95 91 88 89 89 91 93 93 93 94 97 97 95 93 92 92 93 92 91 90 88 85 84 85 84 83 80
84 79 74 69 67 66 64 60 58 56 56 56 56 58 60 62 64 65 67 68 69 70 72 73 72 71 70 70 68 67 66 65 65 64 63 63 63 63 63 66 70 73 76 80 82 82 85 90 93 97 101 103 103 104 103 104 106 104 99 94 92 91 89 89 88 88 88 89 90 94 98 99 95 93
78 71 65 59 55 53 48 43 39 35 33 32 33 33 34 35 36 37 37 36 35 35 35 35 34 33 33 32 31 31 31 32 32 32 31 30 31 30 30 31 34 37 41 45 46 46 49 55 61 71 83 94 99 101 103 104 105 104 102 100 99 96 94 93 92 90 89 90 92 96 100 101 98 98
66 57 50 44 39 35 30 26 23 22 20 20 19 19 19 19 18 19 18 18 17 17 17 16 16 16 16 15 15 15 15 16 15 15 15 15 15 15 15 15 16 17 18 19 20 21 23 25 27 36 53 70 82 90 98 103 103 102 102 101 100 100 100 100 101 101 99 99 100 102 103 102 100 100
46 39 34 29 26 24 21 19 19 19 18 18 17 16 15 15 14 13 13 13 12 12 12 12 12 12 12 12 12 12 12 12 12 12 13 13 13 13 13 13 13 14 14 14 14 15 15 16 17 22 31 42 53 66 81 90 95 99 102 102 102 102 101 100 100 101 101 100 101 103 104 105 104 103
Wind_Speed
63 66 69 73 76 79 83 86 90 94 100 105 109 112 114 116 117 116 115 113 111 109 107 104 101 99 98 97 96 95 95 94 92 90 88 86 85 84 84 83 82 82 82 82 82 81 81 81 80 80 79 78 78 77 76 76 76 76 76 76 76 76 76 76 76 76 76 76 76 75 75 75 75 75
55 58 61 65 68 70 74 77 80 84 89 93 98 103 107 110 113 115 115 114 113 111 109 106 103 101 99 98 97 96 95 95 95 93 91 89 87 85 84 83 82 83 83 82 82 81 82 82 81 81 80 79 78 77 77 76 76 76 76 76 76 76 75 76 76 76 76 75 74 74 73 73 73 74
47 50 53 57 59 62 65 68 71 75 79 83 87 92 96 101 106 109 111 111 111 111 110 108 105 102 101 100 98 97 96 96 95 94 93 92 91 89 87 85 84 83 83 82 82 82 82 82 83 82 81 80 79 78 78 77 76 76 76 76 76 75 75 75 75 75 75 74 73 73 73 73 73 73
40 43 46 49 51 54 57 60 63 67 70 74 77 81 85 90 96 101 104 106 107 108 109 109 107 104 103 102 101 98 97 97 96 95 93 91 90 91 89 88 88 86 84 84 83 83 83 83 83 83 82 82 81 79 78 78 77 76 76 76 76 75 75 75 75 74 74 73 73 72 72 72 73 73
33 36 39 42 45 47 51 54 57 60 63 66 69 73 77 81 86 92 97 101 103 104 106 107 108 106 104 103 103 100 98 97 96 95 93 88 87 89 88 89 90 87 86 86 86 85 84 84 84 84 83 83 82 81 80 79 78 77 77 77 76 76 75 76 75 74 74 73 72 71 70 71 71 71
28 30 33 36 39 42 45 49 51 54 58 61 64 67 71 75 79 84 90 95 98 100 102 104 106 106 105 103 102 101 99 97 96 96 94 89 86 87 87 88 88 87 86 86 86 87 86 84 83 83 84 84 83 83 82 80 79 79 78 78 77 77 76 76 76 75 74 73 72 70 70 70 71 71
26 27 28 30 34 38 41 44 47 50 55 58 60 64 67 71 76 80 85 90 94 96 98 101 102 104 105 102 100 100 99 97 96 96 96 92 87 87 87 87 86 86 85 84 84 86 88 86 83 81 82 84 84 83 83 82 81 81 80 80 79 78 78 77 76 75 74 73 72 71 70 70 71 72
24 25 26 27 30 33 36 39 43 47 51 55 58 62 66 70 73 77 81 84 88 91 94 97 98 100 103 102 100 99 98 97 96 96 96 94 89 85 83 85 87 87 87 85 83 84 86 87 85 81 80 81 83 84 83 83 83 82 82 81 80 80 79 78 77 76 75 74 73 72 71 71 71 73
23 24 25 26 28 29 30 33 37 42 47 51 55 60 64 67 70 73 75 78 81 85 90 93 95 96 100 102 100 98 96 96 95 96 96 95 93 86 78 80 87 89 89 87 85 85 85 85 84 82 81 81 81 83 83 83 82 82 82 81 81 81 80 80 78 77 76 74 73 73 72 72 72 73
20 22 23 25 27 27 28 29 31 35 40 45 50 56 60 63 65 67 69 73 76 80 85 89 92 93 96 98 100 98 96 94 94 95 95 95 96 93 83 78 82 87 88 86 85 86 86 86 85 81 79 81 82 82 82 83 82 82 83 82 81 81 81 80 79 78 77 75 74 73 73 72 73 73
18 19 21 23 25 26 27 29 30 32 34 38 43 49 54 58 61 63 66 68 72 76 80 84 88 91 92 94 97 98 97 95 93 94 95 95 95 97 94 86 81 83 84 84 84 85 84 86 89 85 79 77 78 79 80 81 83 84 85 83 82 82 81 81 81 80 78 76 75 74 73 72 72 72
17 19 20 21 23 24 26 29 31 32 34 35 38 43 48 52 56 59 62 66 69 72 76 80 84 88 90 91 92 95 96 95 93 92 93 95 95 97 100 98 93 88 86 83 84 85 84 84 88 91 87 81 77 77 77 78 80 83 84 83 82 81 82 82 82 81 80 78 76 75 74 72 71 72
15 17 19 20 21 23 25 28 30 32 34 36 38 40 43 46 50 53 58 62 66 70 73 77 80 84 87 89 89 91 93 93 92 90 91 95 97 98 99 101 101 99 97 93 89 87 85 84 85 89 92 89 84 82 82 81 80 80 81 83 82 82 82 82 81 81 81 79 78 77 78 77 77 77
14 16 17 18 20 21 23 26 29 30 32 33 35 36 38 40 44 47 52 57 62 67 72 75 78 81 83 85 86 87 89 90 90 90 90 92 97 100 100 99 100 100 101 101 99 96 92 89 87 88 90 91 89 86 86 86 85 81 77 78 82 83 83 83 82 80 80 80 79 78 79 80 81 82
13 14 15 16 17 19 21 23 26 28 30 30 31 32 33 35 38 42 47 52 58 64 69 73 76 78 79 81 82 83 85 87 89 89 90 91 93 98 100 100 98 96 96 97 99 100 100 98 95 93 92 92 91 89 87 86 88 87 81 76 78 81 82 83 83 82 82 81 81 80 79 80 81 83
12 13 13 14 15 16 17 19 22 24 26 28 29 30 31 32 33 36 41 46 52 58 64 69 73 75 76 77 79 80 82 84 85 87 88 89 90 93 97 99 99 97 95 94 93 94 96 97 97 95 94 94 94 93 91 89 88 89 87 82 80 80 81 82 84 85 85 85 85 84 83 83 83 84
12 12 12 13 13 14 15 16 18 20 21 24 25 27 29 30 30 32 35 39 44 50 56 62 67 71 73 75 76 78 80 82 84 85 86 87 88 90 92 95 98 99 97 96 94 92 92 93 93 93 92 92 92 92 93 92 90 89 88 86 84 83 83 83 84 86 87 88 88 89 88 87 87 87
12 13 13 14 14 14 15 15 16 18 19 20 22 24 26 27 28 30 32 34 37 41 46 51 57 63 68 72 74 76 79 82 84 85 86 87 88 89 90 93 97 100 100 99 97 95 94 93 92 92 91 90 89 88 89 91 92 92 90 87 85 85 85 84 85 86 88 88 88 89 91 92 92 91
10 11 12 13 13 14 15 16 17 19 20 21 22 23 24 26 27 29 31 33 34 36 39 42 47 53 59 65 69 73 77 80 83 85 86 87 88 89 90 91 94 96 99 100 99 98 96 94 93 92 93 93 91 90 89 90 92 95 94 92 89 88 87 86 86 85 86 85 84 84 85 88 91 93
6 6 6 7 8 9 11 13 14 17 19 21 22 24 24 26 27 28 30 32 34 36 37 38 41 45 49 55 61 66 71 75 79 83 85 87 87 87 88 89 90 91 93 96 97 98 97 97 95 94 93 93 93 93 93 93 95 96 97 96 95 93 92 90 89 87 86 85 83 81 81 82 84 87
6 5 4 4 4 5 6 7 9 11 13 16 18 21 23 26 27 28 30 31 33 35 37 38 40 41 43 47 51 56 62 67 72 77 80 82 83 85 86 87 88 89 90 91 93 94 96 97 98 98 97 96 95 95 95 96 97 98 99 98 98 97 96 95 94 93 91 89 87 85 84 83 84 84
4 3 3 3 4 5 6 7 9 10 11 13 15 17 19 22 25 28 30 32 33 35 36 38 40 41 42 44 45 48 52 56 61 66 70 74 77 80 82 84 85 87 89 90 91 92 93 94 96 98 100 100 100 99 99 99 99 99 100 100 100 99 99 98 98 98 97 96 94 92 90 89 88 88
3 3 4 5 6 7 8 9 10 12 13 15 16 18 19 20 22 25 28 30 33 35 36 37 38 40 41 42 44 45 47 49 51 54 58 63 67 70 74 77 80 82 84 87 89 90 91 92 94 95 97 99 100 101 102 102 103 102 102 102 101 101 100 99 99 99 100 101 100 99 97 96 95 94
4 5 5 7 7 9 10 12 13 15 16 17 19 20 22 23 25 27 28 29 30 32 34 36 38 39 40 42 43 44 45 46 47 48 50 53 56 59 63 67 70 73 76 79 83 85 88 90 92 93 95 96 97 98 99 100 101 102 102 102 101 101 101 100 100 100 100 100 101 101 101 100 99 99
6 7 8 9 10 11 12 14 16 18 20 22 23 24 25 26 29 30 31 31 32 33 33 34 35 37 38 40 41 43 44 45 45 46 47 48 50 52 54 57 59 62 66 70 73 76 80 83 86 89 92 93 94 95 96 98 99 100 101 101 101 101 100 100 100 100 100 100 100 100 100 100 100 100
8 9 10 11 12 13 14 16 18 22 25 27 29 30 31 32 33 33 34 34 35 36 36 35 34 34 35 36 38 39 40 41 42 43 44 45 47 48 49 50 52 54 57 60 63 66 69 74 78 82 85 88 91 93 94 96 97 99 100 100 101 101 101 101 100 100 100 100 100 100 100 99 99 99
10 11 11 12 13 14 15 18 21 24 27 28 30 32 34 35 36 37 37 38 38 38 38 37 36 36 36 36 35 35 36 36 37 38 39 40 42 44 45 47 48 50 53 55 56 58 60 63 66 70 74 78 82 86 89 91 94 96 97 99 100 101 102 102 101 101 100 101 101 101 100 99 99 98
11 11 11 12 13 15 17 20 23 25 24 24 25 29 32 34 35 37 38 39 40 40 39 39 38 37 37 37 36 35 35 36 36 36 36 37 38 39 41 42 43 45 48 51 53 54 56 58 59 61 63 66 69 72 77 81 85 88 91 94 97 99 100 101 101 101 101 100 101 101 101 100 100 99
10 10 10 12 13 15 17 20 23 24 21 17 18 24 28 31 33 34 35 37 39 40 40 39 39 38 38 38 38 38 38 37 37 36 35 35 35 36 37 38 39 41 43 45 47 50 52 55 57 59 60 61 62 63 65 69 72 76 80 85 88 92 95 98 99 100 100 100 99 99 100 100 101 100
10 9 10 11 12 13 16 19 22 22 17 11 10 15 20 25 27 28 29 32 34 36 37 37 38 38 38 38 38 38 38 37 36 35 34 34 34 34 35 35 36 38 40 41 43 46 48 50 54 57 59 61 62 62 63 64 65 67 70 73 77 82 86 90 93 95 97 98 98 98 98 99 99 100
10 9 9 9 9 11 14 17 20 20 16 8 5 8 11 14 18 20 23 26 29 30 32 33 35 36 37 38 38 37 36 36 35 35 34 33 33 33 33 34 34 35 37 38 40 42 43 46 48 51 54 57 60 62 64 65 65 66 67 68 70 73 76 79 83 87 91 94 96 97 98 98 98 98
8 8 8 7 7 9 11 14 17 19 17 10 2 4 7 8 10 14 18 21 23 25 27 29 31 33 34 36 36 36 35 35 34 34 33 33 33 32 32 32 32 33 34 35 36 37 38 40 42 44 47 50 54 58 61 64 65 66 67 68 69 70 71 73 76 79 83 86 90 92 95 97 98 99
6 6 6 6 6 7 9 11 13 16 18 16 11 7 6 8 10 12 14 16 17 19 21 23 26 28 30 31 32 33 33 33 32 32 32 32 32 32 32 31 31 32 33 34 35 36 38 39 40 42 43 45 48 51 55 58 61 64 66 68 70 71 72 72 74 75 77 79 82 84 88 91 94 97
4 4 4 4 5 7 8 8 10 12 15 16 16 14 12 10 10 10 12 13 15 16 18 19 21 23 24 26 27 28 29 30 31 31 32 32 32 31 31 31 31 31 32 33 34 36 37 38 40 42 44 45 47 49 51 53 56 59 62 65 67 70 72 73 75 76 76 77 78 79 81 83 86 89
4 4 4 5 5 6 7 7 8 9 11 13 14 15 15 14 13 13 13 13 13 14 15 17 18 19 21 22 23 25 26 27 29 29 29 30 30 30 29 29 29 29 30 31 32 33 35 36 37 39 41 42 44 47 48 50 52 54 56 59 62 66 69 72 74 76 77 78 78 79 79 79 80 82
6 5 5 5 6 6 7 8 8 8 8 9 11 12 13 14 14 14 13 13 13 13 14 15 16 17 18 19 20 22 23 24 25 25 26 26 26 26 26 26 27 28 29 30 31 33 34 35 37 38 39 41 42 42 43 44 45 47 50 53 56 59 64 67 70 72 74 75 77 78 79 79 80 82
7 6 6 6 7 7 7 7 8 8 8 8 9 9 10 11 11 11 11 11 11 11 11 12 13 14 15 16 17 19 20 21 22 22 23 23 24 24 25 25 26 27 29 30 31 32 32 33 34 35 37 38 39 39 39 40 42 44 46 47 49 51 55 60 64 67 68 70 71 72 74 76 78 81
7 7 7 7 7 7 7 6 7 8 9 9 10 9 9 9 8 8 8 8 8 9 9 10 11 12 13 14 15 16 17 18 19 19 20 21 22 23 24 25 26 27 28 29 29 30 29 29 30 31 32 34 34 35 37 40 42 43 43 44 44 44 46 48 51 55 59 63 65 67 69 70 72 76
7 7 7 7 7 7 7 6 7 8 9 9 9 9 9 9 8 7 6 5 5 6 6 7 8 9 10 11 12 13 14 15 16 17 18 19 20 21 22 23 25 26 26 27 28 29 29 30 31 33 34 35 35 35 36 39 39 39 39 40 40 41 41 42 43 45 48 52 55 59 62 64 66 69
6 5 6 5 5 6 6 6 6 7 7 8 8 8 8 8 7 7 6 5 5 4 4 5 5 6 7 8 9 10 11 13 14 15 16 17 17 18 20 21 22 23 24 26 27 29 30 32 34 35 36 36 37 37 38 38 38 38 40 41 41 42 43 43 43 43 43 45 46 48 50 53 55 58
5 4 4 4 4 4 5 5 5 6 6 6 7 7 6 6 6 5 5 4 4 3 3 3 4 4 5 6 7 8 9 11 12 13 14 15 17 18 19 20 22 23 25 26 28 29 31 33 34 35 35 36 36 37 38 39 39 41 43 45 45 45 45 45 45 45 44 45 45 45 46 48 49 51
4 3 3 3 3 3 4 4 5 5 6 6 6 6 6 5 5 4 3 3 2 2 1 1 2 3 4 5 6 7 8 9 10 12 13 14 16 17 19 20 22 24 25 27 29 30 32 34 35 36 37 37 38 38 38 38 40 42 44 45 46 46 46 46 47 46 46 46 46 47 48 49 50 50
2 1 1 2 3 4 4 5 5 5 5 6 6 6 5 5 5 4 3 3 2 2 1 1 2 3 3 4 5 6 7 9 10 11 12 14 15 16 18 19 21 23 25 27 28 30 32 34 36 37 38 39 39 40 40 41 42 44 45 46 47 47 47 47 47 47 47 47 48 48 49 50 51 51
1 2 3 4 4 4 5 5 5 5 5 5 6 6 6 5 5 4 4 3 3 3 2 2 3 4 4 5 6 7 8 9 10 11 12 13 15 16 18 19 21 22 24 26 28 30 32 34 35 37 39 40 41 41 42 42 44 46 47 47 48 48 48 48 48 48 48 48 48 49 50 51 51 51
3 4 4 5 4 4 4 4 5 5 5 5 5 6 5 5 5 4 4 4 3 3 3 3 4 4 5 6 7 8 9 10 11 12 13 15 16 18 19 20 22 24 25 27 29 31 33 34 36 38 40 41 42 43 43 44 46 47 48 48 49 49 50 50 50 50 49 49 49 50 52 52 52 51
Wind_Direction
239 238 237 237 236 235 235 234 233 233 234 234 234 234 234 234 234 234 234 233 233 234 234 232 231 230 231 231 230 230 230 230 230 231 233 234 234 235 235 235 235 235 236 237 237 238 238 239 240 241 241 242 242 243 243 243 244 244 244 244 243 243 243 243 243 243 244 244 243 243 244 244 244 245
238 237 236 236 235 234 234 234 233 232 232 233 233 232 232 232 233 232 232 232 232 232 232 232 231 230 230 230 230 229 229 229 229 230 231 232 233 234 235 236 236 235 235 236 237 238 238 239 240 241 241 241 242 242 243 243 244 244 245 245 245 244 244 244 244 244 244 244 245 245 245 245 245 245
236 235 235 235 234 234 234 234 233 232 232 232 232 232 231 231 232 231 231 231 231 230 230 231 231 230 229 229 229 229 228 229 229 228 230 231 233 234 235 235 236 237 236 236 236 237 238 239 239 240 240 241 241 241 242 242 243 244 244 245 245 245 245 246 246 246 245 244 245 245 246 246 245 245
234 234 234 234 234 233 233 233 232 232 232 232 232 232 231 231 231 231 230 229 229 229 229 229 229 229 229 229 228 228 228 228 228 228 229 231 233 234 235 236 237 237 237 237 237 237 237 237 238 239 240 240 240 240 241 241 242 243 244 245 245 246 246 246 246 247 247 246 245 245 246 247 246 246
233 232 232 232 231 231 231 231 230 230 231 231 231 231 231 230 231 231 230 228 227 227 227 227 227 227 228 228 228 228 227 227 228 228 228 229 233 235 235 236 238 237 237 238 238 238 238 237 237 238 239 240 240 240 240 240 241 241 242 244 245 245 246 247 247 247 247 247 247 246 246 247 247 247
230 230 230 229 228 228 228 228 227 227 228 228 228 229 230 229 229 230 230 229 227 226 226 226 226 226 227 228 228 228 227 227 227 227 227 226 229 234 235 236 237 237 237 237 238 239 239 238 237 237 238 239 239 240 240 240 240 241 241 242 244 245 246 247 248 248 248 248 249 248 248 248 247 247
228 228 227 227 226 226 226 226 225 225 225 225 225 226 227 227 227 228 229 229 227 226 225 226 226 226 226 226 227 227 227 226 226 226 226 224 225 231 234 236 237 236 235 236 237 237 238 238 237 237 237 238 239 239 239 239 239 240 240 241 243 244 245 247 248 249 249 249 249 249 250 249 249 248
225 225 225 224 225 226 225 225 224 224 224 224 224 224 225 227 227 227 228 229 228 226 225 226 226 226 226 225 226 226 226 226 225 225 225 224 223 227 232 235 236 237 235 234 235 236 236 237 237 237 236 236 237 238 239 240 240 240 240 241 242 243 244 246 247 249 250 250 250 250 250 250 251 250
220 220 220 220 222 224 224 225 225 225 225 224 224 225 226 227 228 228 229 229 229 228 226 226 226 227 226 225 225 225 225 225 225 224 224 224 222 224 229 232 233 235 236 234 234 236 236 235 236 237 237 237 236 237 238 239 240 240 240 241 241 243 244 245 246 247 249 250 251 251 251 251 251 251
219 218 217 217 218 220 220 222 223 224 225 225 225 226 227 227 228 228 228 229 229 228 227 227 227 227 227 227 226 225 225 225 225 224 223 223 222 222 225 228 229 231 233 233 233 234 235 234 234 235 236 237 237 237 237 239 240 240 240 240 241 242 243 245 246 246 247 249 250 251 251 251 251 251
216 216 217 219 219 219 217 217 218 220 222 223 225 226 226 226 227 227 227 227 227 228 228 227 227 228 228 227 227 226 225 225 225 224 223 223 223 222 224 227 227 227 229 230 231 232 232 232 232 232 233 233 234 235 236 237 239 241 242 241 241 242 243 244 246 247 247 248 249 250 251 250 250 250
211 211 213 217 220 221 219 217 216 216 218 220 224 226 227 226 227 227 227 226 225 225 226 227 227 228 228 227 227 227 227 226 225 225 224 223 223 223 224 227 228 228 228 228 229 230 230 230 231 232 233 233 232 233 233 234 236 239 242 242 242 243 243 243 244 245 246 246 246 247 249 249 249 249
206 207 209 211 214 217 219 218 218 217 219 221 224 226 228 227 226 226 226 226 225 224 224 226 226 227 228 227 227 227 228 227 226 226 225 224 223 223 224 227 229 231 231 231 230 230 229 229 230 231 233 235 235 234 235 235 236 238 239 241 241 242 242 242 243 243 244 245 244 244 246 247 248 249
204 205 206 208 210 212 214 216 218 219 221 223 226 228 229 228 226 225 225 225 225 224 223 224 225 227 228 228 227 228 228 228 227 227 226 225 224 224 224 226 229 231 232 233 233 233 232 232 232 232 233 235 236 236 236 236 236 237 238 239 239 240 241 241 241 242 242 243 243 242 243 244 245 247
206 206 206 208 210 210 211 213 215 218 220 223 225 227 228 228 227 226 225 224 225 225 224 224 225 226 227 228 228 228 228 228 228 228 227 227 226 226 225 226 228 230 232 233 234 235 235 235 235 235 235 236 237 237 237 236 235 235 236 237 238 237 238 239 239 240 241 242 243 242 242 242 244 245
203 206 207 209 210 211 211 213 214 216 219 221 222 224 226 227 227 227 226 226 226 226 226 225 225 226 227 227 227 227 228 229 229 230 229 228 228 228 227 227 228 230 231 232 233 234 235 235 236 236 236 237 238 238 238 237 236 236 235 236 237 236 235 236 237 239 240 241 242 242 242 243 243 244
196 200 205 207 209 211 212 215 217 219 220 221 222 223 225 226 226 226 227 227 227 228 228 227 227 226 226 226 227 227 227 228 229 229 230 229 229 229 229 228 229 229 230 232 232 233 234 235 236 236 236 237 237 238 238 238 238 237 237 236 236 236 235 235 236 237 239 240 241 241 242 242 242 243
195 198 203 205 207 209 211 213 215 218 220 222 223 224 225 226 227 226 226 227 227 228 228 229 229 228 227 226 226 227 227 227 228 228 229 229 229 229 229 229 229 229 230 231 232 233 234 235 236 236 236 236 236 236 237 237 237 237 236 235 235 234 234 234 234 235 237 238 240 241 242 242 243 243
197 202 207 211 214 216 217 217 217 218 219 220 220 222 223 224 226 226 226 226 227 227 227 227 228 228 228 228 227 228 228 227 228 228 229 229 230 230 230 230 230 231 231 232 233 233 234 235 236 236 236 236 235 234 235 236 237 237 237 236 234 234 234 233 234 234 235 235 237 239 240 242 243 244
162 174 187 202 214 220 225 227 227 227 227 226 225 223 222 222 223 225 226 227 227 228 227 227 226 226 227 227 228 229 230 230 229 229 229 230 231 231 232 232 233 233 234 234 235 235 235 236 236 236 236 236 236 236 235 236 237 238 239 238 237 236 235 234 234 234 234 234 235 235 237 238 240 242
124 131 142 160 183 205 220 227 232 234 235 234 233 231 228 226 223 222 223 225 226 228 228 228 228 227 227 227 227 228 230 231 232 232 232 232 232 233 233 234 234 235 235 236 236 236 236 237 237 236 236 237 237 238 238 239 239 240 240 240 240 240 239 238 237 236 236 236 236 235 236 237 238 239
141 156 182 204 220 231 239 242 242 242 241 239 238 237 235 233 230 226 224 223 223 224 226 227 228 229 229 228 229 229 230 231 232 233 234 234 235 235 235 235 235 235 236 236 237 237 237 237 238 238 238 238 238 239 240 241 242 243 243 243 243 242 242 242 241 240 239 239 239 238 238 238 239 240
205 219 232 243 252 259 264 267 264 260 255 249 245 241 238 236 234 233 231 228 225 223 223 224 225 227 228 228 229 231 232 233 233 233 233 234 235 236 236 237 237 238 238 237 238 238 238 238 238 239 239 239 239 240 241 242 243 243 244 244 245 245 244 244 244 243 242 242 242 241 241 241 241 242
257 263 265 268 272 276 279 280 278 274 268 262 254 249 244 239 236 235 234 233 231 228 226 224 224 224 225 227 228 229 231 233 234 234 234 234 234 235 236 237 238 239 240 240 240 240 240 239 239 240 240 240 240 241 241 242 243 243 244 244 245 245 246 246 246 245 245 245 244 244 244 244 244 244
274 277 280 284 287 289 289 288 285 282 277 271 263 256 249 242 238 236 234 234 233 232 230 227 226 225 225 225 226 228 230 232 233 233 234 235 235 235 236 237 238 239 240 241 241 242 242 242 242 242 242 242 242 242 242 242 243 244 244 245 245 246 246 246 246 246 247 247 246 246 246 246 246 246
286 287 290 293 296 297 296 294 291 287 281 274 268 260 252 244 239 235 233 232 233 233 233 231 229 228 227 226 226 227 228 230 231 233 234 235 236 236 237 237 237 238 239 240 241 241 242 242 243 243 243 243 243 243 243 243 243 244 244 245 245 246 246 246 246 246 246 247 247 247 247 247 247 247
299 299 298 298 301 303 302 300 297 292 283 273 264 256 250 245 240 236 232 230 230 231 232 231 230 230 230 229 228 228 228 229 229 230 232 233 235 236 237 238 238 238 240 240 241 241 242 242 243 243 244 244 244 244 244 244 244 244 244 245 245 246 246 247 247 247 246 246 246 247 247 247 247 246
302 301 299 301 306 309 308 308 308 305 295 279 261 249 244 242 240 238 234 230 228 228 229 229 229 230 230 231 231 230 230 230 230 231 232 233 235 237 238 239 240 240 241 242 242 242 242 243 243 244 244 244 244 244 245 245 245 245 245 244 244 245 246 246 247 247 247 246 246 246 246 246 246 246
299 300 301 304 311 314 315 319 323 321 311 288 258 244 239 238 239 239 235 231 228 227 226 227 227 228 229 229 230 230 230 231 232 234 235 237 239 240 241 242 242 243 244 244 244 244 244 244 244 244 244 244 244 244 244 244 244 244 244 244 244 244 244 245 246 246 247 247 246 246 246 246 246 246
297 297 298 305 315 319 323 332 340 338 329 305 256 237 233 233 234 234 232 229 227 226 226 225 226 226 227 227 228 228 229 230 232 234 235 237 239 241 243 244 246 247 247 247 247 247 246 246 245 245 244 244 244 244 244 244 244 244 244 244 244 244 244 244 244 245 245 245 245 245 245 245 245 245
302 297 298 309 324 328 332 345 355 356 351 333 258 225 217 220 224 224 223 223 223 222 222 222 222 223 224 225 226 226 226 228 229 230 232 234 236 239 242 244 246 247 248 248 248 248 248 247 247 247 246 245 245 245 245 245 245 245 245 245 245 245 245 245 244 244 245 245 245 244 244 244 244 245
309 303 305 317 333 340 345 356 8 14 16 17 11 186 173 174 189 201 207 210 212 213 215 216 218 219 221 223 224 224 225 225 226 227 229 231 234 237 240 242 244 245 246 247 248 248 248 248 248 247 247 246 246 246 246 246 246 246 246 246 246 246 245 245 245 245 245 245 245 245 245 245 244 244
324 316 320 329 344 354 359 6 18 28 34 40 51 80 125 148 162 175 183 188 192 198 203 208 212 215 217 219 220 221 221 222 224 225 226 229 232 237 240 243 246 247 248 249 250 250 250 250 249 248 248 247 246 246 246 246 246 247 247 247 247 247 247 247 246 246 245 245 245 245 245 245 245 245
352 343 349 356 2 8 13 17 26 37 45 52 59 70 86 108 132 149 161 171 180 187 193 199 204 206 208 210 211 212 213 215 218 220 223 228 234 240 245 248 249 250 250 250 250 250 250 250 250 249 249 248 248 247 247 247 247 247 248 248 248 248 248 248 248 248 247 247 246 246 246 246 246 246
21 15 18 24 25 27 28 30 34 44 55 62 67 74 82 90 101 112 125 138 151 162 171 179 184 188 192 195 198 202 206 210 216 221 227 234 240 244 247 247 247 247 248 249 249 250 250 250 250 250 250 250 249 249 249 250 250 250 251 251 250 250 250 249 249 249 249 249 249 248 248 247 247 247
43 37 35 38 43 45 46 46 46 51 63 73 79 83 87 91 96 102 110 120 131 141 151 160 167 174 181 188 195 202 208 215 222 228 233 237 240 241 243 244 246 248 250 252 253 254 254 254 254 254 254 253 253 252 252 252 252 252 252 252 252 252 251 250 249 249 249 249 250 249 249 249 249 248
48 46 44 43 45 51 57 61 62 62 66 74 81 87 93 98 103 109 116 124 132 143 153 163 172 180 188 196 203 209 215 221 226 230 234 237 241 244 247 250 252 253 255 256 256 257 258 258 258 258 258 258 258 258 258 257 255 253 253 253 254 254 254 252 251 250 249 249 249 249 249 249 249 249
41 43 46 47 47 48 53 61 67 70 70 69 72 76 82 91 101 113 124 135 146 156 166 175 183 191 198 205 211 217 222 227 232 237 242 246 249 252 255 256 257 257 257 257 258 258 258 259 259 260 260 260 259 259 257 256 255 255 255 255 256 258 258 257 255 253 251 250 250 250 249 249 249 250
26 29 35 43 49 50 49 50 58 67 73 74 75 77 80 84 90 98 110 125 143 161 177 189 197 204 211 217 222 227 232 237 242 246 250 253 256 258 259 260 260 260 260 260 260 260 260 259 259 258 258 257 257 256 255 255 257 258 260 260 260 260 260 259 258 255 253 252 251 250 250 250 250 251
9 12 17 25 37 48 52 51 52 60 68 74 78 82 86 91 95 99 105 114 125 142 162 180 196 207 216 223 228 234 238 242 246 249 253 256 259 262 263 264 264 265 266 265 265 265 264 262 261 260 261 261 261 261 260 260 261 261 261 261 260 259 259 258 258 257 255 254 253 252 252 251 251 252
353 3 15 25 32 41 51 56 57 57 60 64 68 72 76 82 89 96 105 113 124 139 156 177 198 211 221 230 236 242 246 250 254 257 260 262 264 265 267 268 269 270 270 270 270 269 268 268 268 269 270 269 268 267 266 265 264 262 260 259 259 259 259 259 259 258 258 257 257 256 255 254 253 253
343 356 17 45 58 59 60 62 62 61 59 58 58 57 57 58 59 62 67 75 84 104 141 193 223 234 241 247 251 254 258 261 264 266 267 269 270 271 271 271 271 271 271 271 271 271 270 270 271 271 270 270 269 267 266 264 262 261 260 260 260 260 260 260 260 260 260 259 258 257 257 256 254 254
346 19 66 87 89 84 79 73 67 63 58 56 53 50 48 45 43 39 36 31 27 20 355 313 292 282 277 275 273 273 273 273 273 273 273 274 275 275 276 275 275 274 273 273 272 272 271 271 270 270 269 269 268 267 266 265 264 263 263 263 263 263 263 263 262 262 261 260 259 258 257 256 255 255
112 124 120 113 103 92 82 75 68 61 55 51 46 41 38 37 34 29 24 17 9 359 344 327 312 301 295 290 286 283 281 280 278 278 278 278 278 279 279 278 278 277 276 276 275 275 274 273 272 271 271 270 268 268 268 267 266 266 266 266 266 266 265 264 263 262 262 261 260 259 258 258 257 256
103 109 110 105 97 86 77 69 62 56 52 47 44 40 37 34 30 25 20 13 7 356 343 329 320 312 305 300 296 293 292 289 287 287 286 285 285 284 284 283 282 281 280 279 278 277 276 275 274 273 271 271 270 269 268 267 266 266 266 266 266 265 264 263 263 262 262 262 261 261 260 259 258 257